Regional Weather Roundup
Issued by NWS

Home | Current Version | Previous Version | Text Only | Print | Product List | Glossary On
Versions: 1 2 3 4 5 6 7 8 9 10 11 12 13 14 15 16 17 18 19 20 21 22 23 24 25 26 27 28 29 30 31 32 33 34 35 36 37 38 39 40 41 42 43 44 45 46 47 48 49 50
000
ASUS43 KOAX 281202
RWRNE

WEATHER ROUNDUP FOR NEBRASKA
NATIONAL WEATHER SERVICE OMAHA NE
700 AM CDT TUE JUL 28 2015

NOTES: SATELLITE DATA IS BEING USED TO AUGMENT CLOUD COVER ABOVE
       12000 FEET.
       "FAIR" INDICATES FEW OR NO CLOUDS BELOW 12,000 FEET WITH NO
       SIGNIFICANT WEATHER AND/OR OBSTRUCTIONS TO VISIBILITY.

  * THESE STATIONS DO NOT REPORT WEATHER SUCH AS RAIN...SNOW OR FOG.

NEZ001>004-019>022-054>056-281300-
NEBRASKA PANHANDLE

CITY           SKY/WX    TMP DP  RH WIND       PRES   REMARKS
SCOTTSBLUFF    CLEAR     54  48  80 MISG      30.06R
6HR MIN TEMP:  53; 6HR MAX TEMP:  68;

ALLIANCE       CLEAR     50  46  86 W10       30.02R
6HR MIN TEMP:  49; 6HR MAX TEMP:  71;

CHADRON        CLEAR     56  46  69 W12       30.02R
6HR MIN TEMP:  55; 6HR MAX TEMP:  70;

KIMBALL        CLEAR     52  46  78 NW6       30.08R
SIDNEY         CLEAR     54  47  77 N10       30.06R
6HR MIN TEMP:  54; 6HR MAX TEMP:  76;

$$

NEZ057>060-069>072-079>082-281300-
SOUTHWEST NEBRASKA

CITY           SKY/WX    TMP DP  RH WIND       PRES   REMARKS
NORTH PLATTE   CLEAR     68  59  73 N17G25    29.89R
6HR MIN TEMP:  68; 6HR MAX TEMP:  81;

IMPERIAL       CLEAR     66  51  58 N20       29.95R
6HR MIN TEMP:  66; 6HR MAX TEMP:  80;

MCCOOK         CLEAR     74  65  73 NW21      29.82R
6HR MIN TEMP:  73; 6HR MAX TEMP:  84;

$$

NEZ005>010-023>029-035>040-094-281300-
NORTH CENTRAL NEBRASKA

CITY           SKY/WX    TMP DP  RH WIND       PRES   REMARKS
VALENTINE      CLEAR     59  51  75 W12       29.91R
6HR MIN TEMP:  59; 6HR MAX TEMP:  81; 6HR PCP: TRACE;

AINSWORTH      CLEAR     62  54  74 NW14      29.89R
BROKEN BOW     CLOUDY    74  61  63 N21G29    29.83R
6HR MIN TEMP:  71; 6HR MAX TEMP:  83;

O`NEILL        CLEAR     68  67  98 NW10      29.81R
ORD            PTCLDY    71  68  90 NW5       29.76R
6HR MIN TEMP:  71; 6HR MAX TEMP:  80;

$$

NEZ041-046>049-061>064-073>077-083>087-281300-
SOUTH CENTRAL NEBRASKA

CITY           SKY/WX    TMP DP  RH WIND       PRES   REMARKS
GRAND ISLAND   MOCLDY    75  70  84 CALM      29.79R
6HR MIN TEMP:  75; 6HR MAX TEMP:  80;

AURORA         MOCLDY    75  71  87 S5        29.78R
HASTINGS       MOCLDY    77  69  76 CALM      29.79R
6HR MIN TEMP:  77; 6HR MAX TEMP:  80;

KEARNEY *      MOCLDY    77  68  73 S3        29.79R
$$

NEZ011>018-030>034-042>045-281300-
NORTHEAST NEBRASKA

CITY           SKY/WX    TMP DP  RH WIND       PRES   REMARKS
NORFOLK        PTCLDY    72  70  93 SE15      29.76R
6HR MIN TEMP:  72; 6HR MAX TEMP:  79; 6HR PCP:  0.03;

BLAIR          LGT RAIN  75  71  86 N8        29.85R
COLUMBUS *     MOCLDY    75  68  78 SE3       29.79R
FREMONT        TSTM      77  71  81 SW20G26   29.85R
TEKAMAH        TSTM      74  72  93 N15       29.87R
6HR MIN TEMP:  74; 6HR MAX TEMP:  80; 6HR PCP:  1.75;

$$

NEZ050>053-065>068-078-088>093-281300-
SOUTHEAST NEBRASKA

CITY           SKY/WX    TMP DP  RH WIND       PRES   REMARKS
LINCOLN        MOCLDY    78  71  79 S12       29.75F
6HR MIN TEMP:  77; 6HR MAX TEMP:  81; 6HR PCP:  0.01;

OMAHA EPPLEY   MOCLDY    78  73  84 S5        29.82R
6HR MIN TEMP:  76; 6HR MAX TEMP:  79;

FALLS CITY     CLEAR     76  73  91 S10       29.80F
6HR MIN TEMP:  75; 6HR MAX TEMP:  76;

NEBRASKA CITY  CLEAR     75  74  96 S12       29.79F
$$

NEZ044-045-051>053-067-281300-
OMAHA AREA

CITY           SKY/WX    TMP DP  RH WIND       PRES   REMARKS
OMAHA EPPLEY   MOCLDY    78  73  84 S5        29.82R
6HR MIN TEMP:  76; 6HR MAX TEMP:  79;

BLAIR          LGT RAIN  75  71  86 N8        29.85R
FREMONT        TSTM      77  71  81 SW20G26   29.85R
OFFUTT AFB     MOCLDY    76  73  89 E8        29.80R
$$


USA.gov is the U.S. government's official web portal to all federal, state and local government web resources and services.